Fairbanks Eiels, AK

10:38 PM AKDT on March 24, 2017 (GMT -0800)
Eielson Air Force Base

Weather History for PAEI - August, 2013

Change the Weather History Date:

Saturday, August 24, 2013

  Actual Average Record
Temperature  
Mean Temperature 50 °F -  
Max Temperature 59 °F 63 °F 82 °F (1979)
Min Temperature 40 °F 42 °F 31 °F (1974)
Degree Days  
Heating Degree Days 16    
Moisture  
Dew Point 37 °F    
Average Humidity 65    
Maximum Humidity 93    
Minimum Humidity 38    
Precipitation  
Precipitation 0.00 in - - ()
Sea Level Pressure  
Sea Level Pressure 29.85 in    
Wind  
Wind Speed 7 mph (NNE)    
Max Wind Speed 14 mph    
Max Gust Speed 24 mph    
Visibility 10 miles    
Events      
Averages and records for this station are not official NWS values.
T = Trace of Precipitation, MM = Missing Value Source: NWS Daily Summary

Daily Weather History Graph

Daily Weather History Graph

Search for Another Location

Airport or City:

Trip Planner

Search our weather history database for the weather conditions in past years. The results will help you decide how hot, cold, wet, or windy it might be!

Date:

Astronomy

Aug. 24, 2013 Rise Set
Actual Time 6:05 AM AKDT 9:33 PM AKDT
Civil Twilight 5:06 AM AKDT 10:31 PM AKDT
Nautical Twilight 3:32 AM AKDT 12:02 AM AKDT
Astronomical Twilight Sun does not rise Sun does not rise
Moon 9:30 PM AKDT (8/24) 12:11 PM AKDT (8/24)
Length of Visible Light 17h 25m
Length of Day
15h 27m
Waning Gibbous, 83% of the Moon is Illuminated
Aug 24
Waning Gibbous
Aug 28
Last Quarter
Sep 5
New
Sep 12
First Quarter
Sep 19
Full

Hourly Weather History & Observations

Time (AKDT) Temp. Windchill Dew Point Humidity Pressure Visibility Wind Dir Wind Speed Gust Speed Precip Events Conditions
12:55 AM 47.1 °F - 44.2 °F 90% 29.70 in 10.0 mi WNW 4.6 mph - N/A   Overcast
1:55 AM 45.1 °F 42.8 °F 43.0 °F 92% 29.72 in 10.0 mi Variable 4.6 mph - N/A   Partly Cloudy
2:55 AM 43.9 °F 40.5 °F 41.4 °F 91% 29.74 in 10.0 mi Variable 5.8 mph - N/A   Scattered Clouds
3:55 AM 41.9 °F 35.9 °F 39.9 °F 93% 29.75 in 10.0 mi NNW 10.4 mph - N/A   Clear
4:55 AM 41.2 °F 37.3 °F 39.2 °F 93% 29.78 in 10.0 mi NNW 5.8 mph - N/A   Scattered Clouds
5:55 AM 45.1 °F 39.9 °F 39.0 °F 79% 29.79 in 10.0 mi NE 10.4 mph - N/A   Overcast
6:55 AM 41.7 °F 39.8 °F 39.9 °F 93% 29.81 in 10.0 mi WSW 3.5 mph - N/A   Scattered Clouds
7:55 AM 45.7 °F 43.4 °F 40.8 °F 83% 29.83 in 10.0 mi Variable 4.6 mph - N/A   Overcast
8:55 AM 48.0 °F - 41.7 °F 79% 29.85 in 10.0 mi North 11.5 mph - N/A   Overcast
9:55 AM 49.5 °F - 42.1 °F 76% 29.86 in 10.0 mi NNW 10.4 mph - N/A   Overcast
10:55 AM 52.0 °F - 40.3 °F 64% 29.86 in 10.0 mi North 8.1 mph - N/A   Mostly Cloudy
11:55 AM 54.1 °F - 36.5 °F 51% 29.87 in 10.0 mi NNE 11.5 mph - N/A   Partly Cloudy
12:55 PM 55.8 °F - 34.3 °F 44% 29.87 in 10.0 mi NNE 13.8 mph - N/A   Clear
1:55 PM 56.8 °F - 36.3 °F 46% 29.87 in 10.0 mi NNE 10.4 mph - N/A   Clear
2:55 PM 57.2 °F - 35.1 °F 43% 29.87 in 10.0 mi NNE 4.6 mph - N/A   Clear
3:55 PM 57.9 °F - 35.2 °F 43% 29.87 in 10.0 mi North 6.9 mph - N/A   Scattered Clouds
4:55 PM 58.5 °F - 34.3 °F 40% 29.87 in 10.0 mi North 12.7 mph 21.9 mph N/A   Partly Cloudy
5:55 PM 58.5 °F - 33.1 °F 38% 29.94 in 10.0 mi NE 10.4 mph 24.2 mph N/A   Partly Cloudy
6:55 PM 57.0 °F - 33.8 °F 42% 29.88 in 10.0 mi ENE 10.4 mph - N/A   Clear
7:55 PM 55.0 °F - 34.0 °F 45% 29.89 in 10.0 mi ENE 9.2 mph - N/A   Clear
8:55 PM 51.6 °F - 33.4 °F 50% 29.90 in 10.0 mi ENE 8.1 mph - N/A   Clear
9:55 PM 48.2 °F - 33.1 °F 56% 29.91 in 10.0 mi East 3.5 mph - N/A   Clear
10:55 PM 46.2 °F 43.3 °F 31.8 °F 57% 29.92 in 10.0 mi NE 5.8 mph - N/A   Clear
11:55 PM 40.3 °F 37.1 °F 31.6 °F 71% 29.93 in 10.0 mi NNE 4.6 mph - N/A   Clear